Location: Unspecified
(33.9360°N, 83.4200°W)
Time: 06:57:48
(UTC-05:00)

Daily predictions for brighter satellites

Satellite Brightness Start Highest point End
(mag) Time Altitude Azimuth Time Altitude Azimuth Time Altitude Azimuth
Cosmos 2221 Rocket 3.7 17:47:44 10° S 17:52:16 86° W 17:56:51 10° N
ALOS 2.3 17:48:57 10° SSE 17:53:30 57° ENE 17:58:04 10° N
Cosmos 1782 Rocket 3.9 17:49:31 10° N 17:53:58 75° W 17:58:23 10° S
Okean 2 Rocket 3.2 17:49:41 10° N 17:53:58 51° E 17:58:14 10° SSE
SL-16 R/B 2.3 17:50:23 10° S 17:55:57 63° ESE 18:01:34 10° NNE
ERBS 2.5 17:56:31 10° SSW 17:59:45 51° SE 18:03:00 10° NE
Cosmos 2366 rocket 4.0 17:54:31 10° S 18:00:33 63° E 18:06:37 10° NNE
Delta 2 Rocket 3.4 18:04:41 10° WSW 18:08:27 66° SSE 18:12:18 13° E
Cosmos 2218 Rocket 4.0 18:02:58 10° S 18:09:07 82° E 18:15:24 10° N
Cosmos 1503 Rocket 4.1 18:12:40 10° S 18:17:42 57° ESE 18:22:45 10° NNE
OAO 3 Rocket 4.0 18:16:54 10° W 18:21:38 50° SSW 18:26:16 10° SE
COSMO-SKYMED 1 2.7 18:17:32 10° NNE 18:21:47 52° E 18:26:00 10° S
Cosmos 1356 Rocket 3.7 18:19:32 10° SSW 18:23:32 66° W 18:27:38 10° N
Envisat 4.2 18:24:24 10° ESE 18:27:53 19° ENE 18:31:21 10° NNE
YAOGAN 1 3.0 18:24:05 10° SE 18:28:03 37° ENE 18:32:02 10° N
SeaSat 1 4.1 18:25:08 10° S 18:29:40 38° WSW 18:34:15 10° NW
Cosmos 841 Rocket 3.8 18:24:38 10° NNW 18:29:49 69° WSW 18:34:55 10° S
GPS 2-05 Rocket1 2.7 18:27:01 10° W 18:30:06 60° N 18:31:33 28° ENE
SL-08 R/B 4.5 18:25:14 10° S 18:31:21 89° WNW 18:37:34 10° N
Cosmos 1666 2.7 18:28:09 10° N 18:31:57 56° E 18:35:45 10° SSE
Meteor 2-4 Rocket 4.4 18:27:51 10° SSE 18:32:51 31° E 18:36:49 14° NE
COSMOS 2428 4.2 18:29:37 10° SE 18:33:06 17° E 18:33:21 17° E
Cosmos 1743 3.0 18:31:58 10° N 18:35:37 40° E 18:39:13 10° SSE
FENGYUN 3A 4.4 18:30:31 10° S 18:35:48 56° W 18:41:06 10° NNW
Cosmos 1975 3.1 18:32:04 10° N 18:35:58 43° E 18:39:48 10° SSE
Meteor 2-17 Rocket 4.5 18:30:27 10° S 18:36:25 58° E 18:42:26 10° NNE
Cosmos 2219 Rocket 3.9 18:34:56 10° SE 18:36:53 14° ESE 18:36:53 14° ESE
H-2A R/B 2.8 18:34:12 10° SSE 18:37:57 52° ENE 18:41:45 10° N
CCE 1 Rocket 4.4 18:35:42 10° WSW 18:39:36 48° S 18:43:36 17° ESE
Meteor 1-18 Rocket 4.4 18:36:09 10° SSW 18:41:44 73° W 18:47:17 10° N
Cosmos 1727 Rocket 3.9 18:37:47 10° N 18:44:04 83° E 18:50:16 10° S
GPS 2-04 Rocket1 2.8 18:39:55 10° WNW 18:44:08 76° N 18:46:04 31° E
GOES 2 Rocket 4.2 18:42:59 10° WSW 18:47:42 39° S 18:50:30 18° SE
Cosmos 2322 Rocket 3.1 18:42:30 10° SW 18:48:00 49° WNW 18:53:31 10° N
Okean 1 Rocket 3.2 18:44:35 10° N 18:48:51 47° E 18:53:03 10° SSE
Cosmos 2263 Rocket 2.1 18:43:19 10° NNW 18:49:02 84° ENE 18:54:41 10° SSE
Cosmos 1378 Rocket 3.4 18:46:01 10° S 18:50:23 78° E 18:54:33 11° N
DELTA 2 R/B (1) 3.5 18:45:20 10° WNW 18:50:56 81° NNE 18:54:11 26° ESE
CZ-4 R/B 1.7 18:48:37 10° S 18:52:48 73° WSW 18:57:01 10° NNW
Cosmos 540 Rocket 4.0 18:50:41 10° NNW 18:55:44 60° WSW 19:00:44 10° S
Cosmos 2333 Rocket 3.7 18:53:29 10° SE 18:56:00 18° ESE 18:56:00 18° ESE
SEDSat Delta rocket 3.9 18:52:12 10° W 18:58:39 70° S 19:01:29 32° ESE
Cosmos 2360 Rocket 2.2 18:58:58 10° SSW 19:04:35 82° WNW 19:08:41 19° NNE
Ariane Rocket 2.9 18:59:44 10° SSE 19:04:48 88° ENE 19:09:53 10° NNW
Cosmos 1934 Rocket 4.1 19:00:53 10° SSE 19:06:53 50° E 19:10:10 26° NNE
Cosmos 1932 4.4 19:02:47 10° SSW 19:09:03 87° WNW 19:12:45 26° NNE
Cosmos 1000 Rocket 4.3 19:08:08 10° N 19:14:16 72° E 19:20:23 10° SSE
Shenzhou-11 Module 3.7 19:14:05 10° SW 19:15:43 29° SW 19:15:43 29° SW
CZ-3B Rocket 4.3 19:14:26 10° SSW 19:17:39 19° SSE 19:20:59 15° SE
Lacrosse 5 rocket 1.5 19:14:23 10° SW 19:19:01 84° NW 19:19:40 66° NNE
Timation 1 Rocket 4.4 19:14:16 10° N 19:20:04 50° ENE 19:20:04 50° ENE
ISS -1.5 19:18:50 10° NW 19:19:50 18° NW 19:19:50 18° NW
Cosmos 968 Rocket 4.4 19:20:37 10° SW 19:25:38 46° WNW 19:29:29 17° N
Cosmos 2322 3.8 19:23:55 10° SSW 19:29:33 76° WNW 19:31:41 40° N
EPKM 4.0 19:28:25 10° SW 19:29:49 22° SSW 19:29:49 22° SSW
Meteor 1-13 Rocket 4.3 19:27:21 10° SSW 19:32:51 71° W 19:36:04 26° N
CZ-2C R/B 4.3 19:31:24 32° N 19:33:29 59° WNW 19:38:09 10° SSW
Envisat 4.1 20:01:45 10° S 20:06:32 42° W 20:11:20 10° NNW
COSMOS 2428 3.7 20:11:11 10° SW 20:15:25 44° WSW 20:15:25 44° WSW
Cosmos 2219 Rocket 3.5 20:15:30 10° SSW 20:18:40 34° SW 20:18:40 34° SW
Cosmos 2333 Rocket 4.2 20:35:57 10° SW 20:38:05 22° SW 20:38:05 22° SW
